RH
81 80 80 80 75 74 74 73 70 66 63 58 54 50 46 41 38 36 35 34 38 40 39 36 36 33 33 34 34 24 20 19 25 26 30 30 23 23 21 22 23 21 22 23 25 25 22
91 86 79 77 74 70 69 68 66 64 63 61 58 54 50 44 38 35 34 34 37 37 38 35 36 31 34 35 28 23 22 21 27 27 32 33 34 32 20 23 26 25 24 23 23 21 24
86 88 87 80 77 72 67 64 63 62 61 60 60 59 55 49 43 37 36 38 37 38 36 35 33 32 32 33 21 26 24 27 28 29 33 35 35 26 23 23 24 26 25 24 24 24 26
79 84 85 87 75 71 68 66 62 60 59 57 58 57 55 52 47 40 41 41 39 40 38 36 34 36 39 26 18 27 24 28 28 29 28 26 28 28 28 26 32 30 36 38 30 26 27
95 85 79 71 70 71 68 66 64 60 55 53 52 51 51 50 45 45 46 44 46 39 39 38 37 34 38 23 27 28 29 27 30 31 30 26 29 35 37 45 56 53 41 40 32 28 28
91 93 64 64 68 64 64 64 60 60 60 57 52 49 48 47 42 43 44 46 48 46 44 40 40 43 30 27 27 27 34 29 32 29 36 35 48 44 49 61 57 46 41 34 34 32 31
67 65 64 59 61 60 58 59 59 56 57 56 56 51 48 46 43 49 40 47 53 46 49 43 47 48 39 32 30 32 35 34 32 32 38 43 42 45 39 46 37 37 35 36 34 34 37
85 78 74 70 66 65 67 68 68 67 65 63 61 61 59 52 47 56 52 68 68 68 73 58 60 54 46 35 34 35 36 35 35 38 42 46 48 40 39 36 35 34 36 39 40 36 40
98 90 86 86 87 90 90 91 88 82 80 80 83 80 70 62 54 62 69 71 69 67 76 60 58 54 36 32 36 36 39 39 39 47 47 51 39 39 33 35 37 38 39 41 41 45 42
100 100 99 94 94 94 97 100 95 96 95 91 84 74 77 67 76 79 74 77 73 66 74 46 63 46 39 40 34 42 41 38 41 48 52 48 39 37 36 37 41 39 39 40 46 55 58
100 98 100 100 99 96 96 95 96 96 99 98 92 89 78 74 91 85 80 82 74 56 43 24 51 40 42 38 44 44 42 39 44 47 49 47 45 41 40 39 39 44 43 48 51 71 61
98 96 100 98 99 99 90 86 85 88 85 80 89 90 93 90 90 88 89 84 74 61 48 50 49 45 40 38 43 50 48 40 40 44 46 47 40 40 40 45 41 52 52 67 79 79 84
94 94 94 99 99 98 90 86 96 88 88 82 83 89 96 100 91 88 86 76 84 78 38 50 59 53 45 45 39 54 57 55 60 63 59 52 51 43 39 49 44 47 55 76 76 90 72
93 92 94 92 96 95 95 98 98 93 91 91 85 84 85 96 90 98 85 82 90 55 66 51 54 54 54 51 47 58 62 61 57 54 72 69 58 56 46 45 54 59 55 76 68 75 64
93 94 94 92 96 99 100 98 90 84 79 75 77 82 86 80 78 100 93 91 83 71 55 63 52 58 60 52 45 58 67 66 53 56 51 77 68 50 46 45 44 55 67 50 54 62 87
81 88 91 90 99 94 96 96 91 86 82 74 76 94 92 92 84 99 99 80 72 60 54 54 63 59 69 63 59 65 66 54 51 56 41 46 60 55 49 41 46 49 47 61 69 66 72
84 87 77 87 90 93 90 92 90 90 88 79 82 99 95 96 99 99 96 85 67 58 59 62 68 69 65 64 63 73 58 49 54 48 53 50 58 63 50 60 63 54 55 52 61 76 77
78 84 82 78 86 87 90 87 87 85 88 85 92 100 88 99 99 99 96 80 61 64 56 64 69 70 72 68 74 70 66 50 50 54 63 55 63 78 68 54 51 50 51 47 56 65 84
74 80 83 84 78 81 79 84 85 83 85 91 94 96 80 91 99 97 90 80 76 74 66 66 70 67 69 79 80 76 67 51 48 49 60 54 69 88 76 69 56 60 57 47 48 56 56
76 85 78 80 82 78 82 78 84 82 91 92 95 100 94 96 98 100 99 98 98 93 96 92 95 83 81 72 61 67 68 60 76 87 81 68 69 75 76 64 63 70 64 51 47 58 54
70 71 74 72 77 76 81 83 78 81 87 91 98 100 99 100 100 100 100 100 100 100 100 97 100 100 100 100 97 90 93 83 83 88 86 92 94 76 71 70 69 63 61 59 60 54 67
64 79 74 72 72 75 78 82 84 82 90 84 98 99 95 100 100 100 99 100 99 100 100 99 100 100 100 99 100 99 100 100 100 99 100 99 99 99 98 93 100 98 89 79 68 57 56
73 77 87 79 70 69 74 80 86 87 87 91 96 94 89 90 99 100 99 100 100 100 97 97 100 100 100 100 100 98 99 98 99 100 100 100 99 99 96 98 98 86 73 85 82 71 75
81 76 84 82 75 70 72 75 79 91 86 77 86 88 98 98 96 91 86 93 100 100 99 98 100 100 97 89 92 97 97 97 97 95 95 99 99 99 97 97 94 59 52 52 69 72 70
76 80 85 88 87 74 70 74 77 90 92 80 82 86 97 98 91 89 85 86 87 89 99 100 97 94 89 93 99 93 91 97 90 92 90 96 98 98 97 96 77 70 62 56 74 61 73
77 73 82 80 89 93 80 75 75 83 92 93 82 76 95 97 94 73 84 86 96 98 95 96 86 88 90 100 99 97 92 74 70 59 92 93 97 98 99 96 96 75 84 78 50 80 84
78 74 76 86 84 81 88 86 77 75 84 100 94 80 94 100 94 84 93 88 81 86 93 86 98 98 96 99 97 96 95 75 79 78 90 97 98 97 96 96 95 96 89 75 94 89 90
91 76 77 80 88 88 84 88 83 75 74 98 98 93 90 100 96 86 75 81 85 87 95 90 90 95 100 98 98 94 99 95 99 92 90 89 86 90 95 98 95 98 68 80 73 86 77
92 93 84 74 75 78 78 78 76 74 72 86 97 96 98 98 100 95 84 74 63 65 84 96 92 90 91 98 98 98 98 95 86 83 64 86 77 85 75 66 67 91 74 64 80 76 73
Wind_Speed
8 8 6 6 4 4 4 4 4 5 6 7 8 10 12 14 15 16 18 19 18 18 14 9 9 8 1 1 2 6 8 6 2 1 4 3 2 1 2 2 2 2 2 3 3 3 1
10 10 9 8 7 6 5 6 5 5 6 8 10 11 13 14 15 17 19 19 18 17 10 7 7 4 1 1 2 6 7 4 6 4 4 6 2 2 1 1 2 1 2 2 1 1 1
13 12 12 11 10 8 7 7 7 6 6 8 9 12 14 15 17 18 19 18 18 12 5 5 4 2 2 2 3 6 5 3 6 5 3 3 1 3 2 2 0 3 2 3 2 1 2
16 15 14 13 12 11 10 9 8 7 7 7 9 12 14 16 18 19 19 19 13 5 2 2 1 2 2 1 3 4 4 2 3 4 3 2 1 4 3 1 5 3 4 2 1 2 1
18 17 16 15 14 13 12 10 9 8 7 7 8 10 14 17 19 21 19 19 6 2 1 1 1 3 3 1 0 3 4 2 3 2 2 2 2 3 3 3 4 6 1 2 4 2 2
20 19 18 17 15 14 12 11 10 9 9 8 8 9 12 15 18 20 20 12 3 2 0 1 1 2 1 2 2 2 1 2 3 2 2 4 5 3 3 4 3 2 2 2 4 3 2
21 20 19 18 16 14 13 12 10 9 9 9 9 9 11 14 16 17 19 5 6 3 3 3 1 3 1 3 2 1 1 2 1 4 3 3 3 5 7 6 4 4 2 2 3 1 2
22 21 20 18 17 15 13 12 11 9 8 8 8 10 11 12 14 11 9 5 2 2 7 1 3 4 2 0 2 2 1 3 2 5 3 4 5 5 3 5 6 5 4 5 5 1 1
28 24 23 21 20 17 15 14 13 11 9 8 7 9 10 11 9 4 10 5 3 5 2 5 3 3 2 4 3 2 4 2 3 4 5 6 2 5 3 4 4 2 4 3 4 5 1
10 24 26 23 20 18 16 17 14 13 11 10 9 10 10 11 1 4 2 3 3 3 5 6 3 2 2 3 1 1 1 3 1 9 7 4 1 6 3 4 5 4 2 3 3 4 3
2 3 9 17 17 16 14 13 13 12 10 10 8 11 9 7 6 2 2 3 2 1 4 4 2 2 2 1 4 1 1 2 4 5 6 6 8 5 3 4 6 3 4 4 3 4 4
7 6 1 4 9 13 13 11 10 10 9 7 9 11 8 4 1 1 2 4 3 6 6 2 1 1 1 0 1 1 2 1 0 1 3 2 1 4 6 3 3 10 5 5 4 3 0
6 5 5 1 3 7 7 8 8 9 9 8 6 7 5 4 2 3 1 3 4 4 2 5 5 5 3 3 2 3 3 4 5 4 4 1 3 0 3 5 6 3 5 2 4 1 6
7 6 6 4 2 5 7 9 8 5 6 9 10 9 7 11 9 3 2 2 4 4 6 3 2 3 7 9 5 6 4 3 6 3 3 5 5 9 6 5 8 6 7 6 8 4 4
10 8 5 4 3 5 5 7 5 4 4 6 8 9 8 7 12 7 3 8 7 7 4 4 2 2 3 3 3 4 7 5 8 12 9 6 6 2 4 4 5 5 4 2 2 2 2
13 9 6 4 4 4 3 5 4 4 2 1 2 3 5 8 10 9 5 12 7 6 2 3 9 8 7 5 6 7 8 5 5 12 1 3 3 0 1 2 2 5 4 3 1 3 8
17 15 10 9 6 3 5 6 4 2 2 1 2 1 2 10 15 5 11 7 6 6 4 6 4 3 5 5 7 5 5 3 6 2 6 5 5 2 3 7 10 3 3 3 2 4 5
22 20 16 10 11 7 6 6 4 2 2 2 3 2 2 9 7 3 12 6 6 5 10 7 2 5 7 6 4 6 9 6 6 6 9 7 4 5 12 2 4 5 9 9 8 7 4
22 22 21 17 14 13 9 6 6 3 3 3 2 1 2 3 6 9 2 8 4 4 8 8 9 9 6 6 4 8 7 5 4 5 4 4 4 2 2 3 2 6 7 7 1 2 23
22 21 22 22 21 16 16 9 6 5 3 4 1 1 1 2 2 2 3 3 2 5 4 4 5 4 5 12 15 7 5 2 6 5 7 4 6 10 15 5 5 5 9 15 19 13 19
20 21 21 20 20 21 19 17 10 7 6 3 1 1 1 2 1 2 2 1 2 3 4 7 3 5 3 3 3 7 4 7 4 10 3 2 11 13 21 20 15 18 14 17 21 25 19
16 19 19 18 18 19 21 22 18 14 10 3 3 1 0 2 3 3 1 1 2 2 2 1 2 1 1 2 1 1 3 0 2 4 3 2 3 2 4 5 6 12 23 26 25 23 23
17 17 19 18 17 17 16 19 21 19 17 3 2 2 2 2 2 2 2 4 1 1 2 3 3 0 2 2 1 5 6 6 5 2 1 2 1 2 4 1 5 13 9 14 17 22 18
15 19 22 19 18 17 16 17 21 24 23 9 7 4 2 2 4 3 5 5 7 7 3 1 3 2 2 6 7 8 11 11 10 14 8 3 2 3 3 2 7 3 2 3 3 7 9
14 13 17 19 19 17 15 16 17 24 25 16 12 6 3 2 3 3 7 4 4 5 4 4 5 6 3 1 2 4 2 3 6 10 12 13 5 3 3 3 7 10 5 5 1 3 14
12 10 14 16 15 11 12 13 16 19 24 23 16 13 3 4 5 2 3 4 4 3 0 3 2 5 3 2 2 1 2 2 3 3 4 9 12 5 2 5 4 4 8 14 5 6 17
10 13 14 17 17 15 17 11 14 16 19 21 10 20 5 3 3 4 3 4 4 2 2 1 3 4 4 2 2 3 3 2 3 3 0 2 4 11 7 3 3 4 10 11 5 6 15
7 10 12 13 15 16 16 14 11 12 15 23 8 22 10 2 2 4 5 4 2 2 3 2 2 1 2 4 2 3 3 3 1 1 5 2 1 2 3 4 7 4 7 1 8 9 12
6 7 9 13 14 16 17 15 17 10 10 16 5 16 21 3 1 5 10 10 10 10 4 2 2 3 3 1 0 1 2 0 3 3 3 3 5 2 3 4 3 4 6 7 5 11 10
Wind_Direction
228 224 222 226 225 244 267 274 292 310 323 332 338 342 345 347 348 347 345 343 341 341 337 332 341 341 359 21 307 340 349 356 352 58 59 39 21 18 177 153 87 93 174 105 139 161 233
236 237 234 235 236 235 255 274 285 301 317 328 333 337 339 342 343 341 340 338 333 333 329 326 336 356 26 323 346 348 359 21 37 50 55 50 73 335 95 68 79 82 83 72 82 17 277
231 239 241 239 243 240 243 254 273 289 306 320 328 333 336 338 338 337 335 332 329 325 315 329 350 32 93 247 342 360 7 31 40 58 99 87 80 72 357 91 174 99 57 347 221 164 324
226 230 239 241 242 245 247 254 261 275 294 311 323 329 331 334 335 335 333 331 327 319 289 322 358 61 237 313 350 9 20 15 41 62 92 90 67 100 48 301 21 57 51 18 313 90 35
231 228 231 235 240 244 246 250 261 270 280 295 311 322 329 334 336 336 334 332 327 324 213 312 176 94 274 309 13 358 16 25 353 31 63 92 72 96 54 73 14 14 253 246 321 37 323
234 232 228 232 233 240 245 249 253 267 280 289 302 316 326 333 338 339 335 328 321 230 331 121 94 40 202 200 292 324 37 41 65 342 36 48 50 83 57 84 223 274 291 284 269 346 346
234 231 229 226 229 233 236 245 250 256 273 290 304 314 324 332 339 347 344 356 11 317 29 213 235 271 324 297 281 174 55 89 63 62 169 13 76 209 206 174 163 148 168 265 266 53 299
232 229 228 227 222 223 229 236 243 249 260 276 295 312 322 333 341 358 17 62 77 300 307 5 228 265 246 348 314 214 171 149 150 186 127 32 233 210 141 157 145 153 167 243 269 204 204
234 230 227 228 226 225 228 235 240 244 252 266 291 305 316 333 341 14 63 78 4 347 276 299 226 201 180 152 229 228 151 162 162 157 178 163 246 133 139 157 148 207 187 202 234 329 43
227 233 233 226 223 224 229 231 232 240 242 252 275 289 312 335 68 15 66 18 21 90 51 277 278 292 122 138 267 144 192 167 196 191 163 220 157 163 181 211 133 217 148 99 68 52 254
80 251 176 193 202 217 230 231 222 220 229 242 257 291 304 331 327 22 19 342 340 127 18 288 314 317 356 183 126 127 11 13 194 192 127 232 166 167 173 205 168 210 78 83 69 86 29
359 72 271 211 191 206 214 243 227 214 219 232 251 273 288 279 258 310 287 327 326 49 248 339 77 341 24 104 325 57 86 41 346 133 341 241 336 171 192 111 143 150 87 59 65 82 354
329 346 314 124 205 225 207 207 225 223 227 224 211 253 236 224 217 164 27 62 45 160 289 200 183 162 192 200 231 184 166 182 165 115 238 350 215 226 124 78 13 61 88 322 329 3 228
276 277 308 305 253 219 197 187 205 227 247 234 209 206 242 219 211 233 141 115 191 232 247 336 152 143 184 161 211 178 146 249 219 106 116 166 301 167 180 199 184 188 172 170 234 212 250
269 266 264 277 262 202 154 165 187 206 238 260 244 222 226 230 211 205 119 216 200 197 214 193 72 173 258 265 165 142 198 209 208 173 185 171 266 163 166 150 143 191 191 219 345 48 1
250 254 245 243 244 223 200 207 203 209 224 308 208 195 221 200 195 172 222 224 203 205 249 155 200 174 201 211 168 182 188 203 234 197 143 223 278 254 126 126 82 164 156 95 46 275 263
235 230 236 247 222 216 204 212 192 179 204 49 162 167 204 195 165 202 223 219 203 223 199 203 219 273 224 192 198 202 213 243 211 193 179 154 169 229 125 203 178 149 201 221 177 164 213
237 226 221 224 228 230 216 209 191 195 227 186 151 227 16 186 197 202 223 187 181 209 246 242 229 213 196 209 237 228 216 234 172 154 164 214 172 207 209 233 180 185 196 175 219 229 227
241 237 228 221 216 211 211 208 196 228 215 161 192 256 8 333 224 214 168 219 215 220 203 225 234 215 188 205 245 205 197 240 194 164 165 201 231 286 264 40 28 212 198 218 246 98 244
242 238 236 229 223 217 216 200 227 188 195 171 126 226 303 70 7 13 32 16 101 41 58 3 345 323 239 237 232 245 216 77 6 40 15 335 249 240 248 211 131 190 220 219 222 241 254
249 242 235 232 230 225 215 208 182 211 175 144 58 202 27 122 70 79 57 33 70 28 24 6 53 41 2 304 341 257 21 328 50 3 39 57 264 265 268 278 272 261 248 236 224 233 236
248 232 230 224 223 221 216 212 198 181 185 137 147 196 43 105 127 125 122 96 43 112 56 349 258 144 317 352 352 42 21 279 326 1 31 354 256 334 275 335 358 274 266 256 248 246 250
237 234 224 223 226 222 218 215 206 195 176 143 148 123 107 151 150 153 180 149 143 36 187 247 153 59 240 340 239 258 226 240 252 290 293 268 263 330 246 59 322 282 248 237 253 251 260
242 231 227 224 227 223 219 218 211 207 197 165 164 128 134 240 194 198 170 186 196 202 216 168 199 185 156 218 254 256 247 245 240 242 226 255 229 211 263 98 250 285 225 241 258 275 284
237 230 215 215 222 225 221 220 219 212 206 197 169 144 146 211 207 210 224 189 197 216 207 210 194 200 207 184 281 313 276 233 243 225 215 215 231 259 262 216 311 305 12 4 317 10 31
234 238 229 221 230 219 221 225 223 218 210 206 197 172 135 137 235 164 200 178 193 178 260 213 211 176 156 236 196 235 252 308 296 325 168 198 213 232 182 255 249 31 344 328 297 258 1
247 234 231 226 215 220 230 232 232 225 214 199 197 197 139 175 240 153 180 188 171 154 153 167 157 182 155 200 222 210 234 263 247 242 8 257 225 224 238 280 280 22 4 325 243 337 326
264 249 239 227 223 212 208 219 240 229 220 207 203 201 177 183 252 193 192 161 85 132 155 171 66 247 169 209 210 213 211 234 315 192 142 211 250 274 238 245 241 189 350 335 265 264 272
271 266 248 236 231 226 222 216 217 224 229 207 191 206 204 133 269 252 253 241 224 212 161 173 207 171 200 153 240 125 223 190 176 269 222 255 207 211 196 236 3 173 237 278 212 255 273